Regional Weather Roundup
Issued by NWS

Home | Current Version | Previous Version | Text Only | Print | Product List | Glossary On
Versions: 1 2 3 4 5 6 7 8 9 10 11 12 13 14 15 16 17 18 19 20 21 22 23 24 25 26 27 28 29 30 31 32 33 34 35 36 37 38 39 40 41 42 43 44 45 46 47 48 49 50
000
ASUS45 KSLC 270210
RWRUT

UTAH REGIONAL WEATHER ROUNDUP
NATIONAL WEATHER SERVICE SALT LAKE CITY UT
800 PM MDT TUE MAY 26 2015

UTZ001>011-023>025-270300-

NORTHERN UTAH

CITY           SKY/WX    TMP DP  RH WIND       PRES   REMARKS
BRIGHAM CITY   MOCLDY    57  48  72 CALM      30.02S
HILL AFB       NOT AVBL
LOGAN          NOT AVBL
OGDEN          CLOUDY    58  48  69 NW3       30.02R
PROVO AIRPORT  MOCLDY    54  46  76 SE9       30.05S
SALT LAKE CITY CLOUDY    62  49  62 S6        30.02R
VERNAL         PTCLDY    59  47  64 SE12      30.01R
WENDOVER       MOCLDY    61  43  51 N9G47     30.01R
HEBER CITY     CLOUDY    54  45  71 N3        30.07S
WEST JORDAN    MOCLDY    61  48  63 S6        30.04S

$$

UTZ012>022-026-027-270300-

SOUTHERN/CENTRAL UTAH

CITY           SKY/WX    TMP DP  RH WIND       PRES   REMARKS
BLANDING       PTCLDY    60  46  60 CALM      30.14F
BRYCE CANYON   MOCLDY    50  43  77 N9        30.16F
CEDAR CITY     MOCLDY    53  46  77 N12G24    30.10R
DELTA          MOCLDY    59  43  56 E6        30.06S
HANKSVILLE     MOCLDY    68  36  30 NW14G22   30.02R
MILFORD        LGT RAIN  53  47  79 VRB5G20   30.12R
MOAB/CYNLANDS  MOCLDY    70  38  31 S10       29.98R
PRICE          CLOUDY    55  40  56 NW17G29   30.07R
ST GEORGE      CLOUDY    84  30  14 W10       29.90R

$$

REGIONAL REPORTS     COLORADO/ARIZONA

CITY           SKY/WX    TMP DP  RH WIND       PRES   REMARKS
CRAIG, CO      LGT RAIN  50  42  74 S16G26    30.11R
GRAND JUNCTION PTCLDY    59  46  62 SE18      30.04R
RIFLE          CLOUDY    53  48  83 NE5       30.11F
MONTROSE       MOCLDY    58  48  69 NW7       30.14R
CORTEZ         CLEAR     62  42  47 E6        30.09R
PAGE, AZ       MOCLDY    76  41  28 N10       29.96S
GRAND CANYON   MOCLDY    65  30  27 SW12      30.12R
KINGMAN        PTCLDY    78  18  10 SW15      29.95R
FLAGSTAFF      MOCLDY    61  31  32 SW10      30.16R

$$

REGIONAL REPORTS    NEVADA/IDAHO/WYOMING

CITY           SKY/WX    TMP DP  RH WIND       PRES   REMARKS
LAS VEGAS, NV  PTCLDY    89  34  14 SW12      29.77R
ELY            MOCLDY    62  36  37 SE8       30.05R
ELKO           CLOUDY    67  40  37 NW12      29.98R
POCATELLO, ID  PTCLDY    64  45  49 S12       29.96S
BURLEY         MOCLDY    62  46  55 S9        29.95
EVANSTON, WY   CLOUDY    50  43  77 W8        30.10S
ROCK SPRINGS   CLOUDY    51  45  79 S5        30.07S
KEMMERER       LGT RAIN  46  45  93 W8        30.10S

$$


USA.gov is the U.S. government's official web portal to all federal, state and local government web resources and services.